CAPE
0 0 0 0 0 0 0 0 0 0 0 0 0 0 0 0 0 0 0 0 0 0 0 0 0 0 0 0 0 0 0 0 0 0 0 0 0 0 0 0 0 0 0
0 0 0 0 0 0 0 0 0 0 0 0 0 0 0 0 0 0 0 0 0 0 0 0 0 0 0 0 0 0 0 0 1 13 6 0 0 0 0 0 0 0 0
0 0 0 0 0 0 0 0 0 0 0 0 0 0 0 0 0 0 0 0 0 0 0 0 0 0 0 0 0 0 0 6 7 10 13 0 0 0 0 0 0 0 0
0 0 0 0 0 0 0 0 0 0 0 0 0 0 0 0 0 0 0 0 0 0 0 0 0 0 0 0 0 0 0 3 0 0 1 0 0 0 0 0 0 0 0
29 0 0 0 0 0 0 0 0 0 0 0 0 0 0 0 0 0 0 0 0 0 0 0 0 0 0 3 6 0 0 0 0 0 0 0 0 0 0 0 4 0 0
119 111 3 0 0 0 0 0 0 0 0 0 0 0 0 0 0 0 0 0 0 0 0 0 0 0 0 0 0 0 0 0 0 0 0 0 0 0 0 0 0 0 0
252 159 46 0 0 0 0 0 0 0 0 0 0 0 0 0 0 0 0 0 0 0 0 0 0 0 0 0 0 0 0 0 0 0 0 0 0 0 0 0 1 0 0
193 148 33 0 0 0 0 0 0 0 0 0 0 0 0 0 0 1 0 0 0 0 0 0 0 0 0 0 0 0 0 0 0 0 0 0 0 0 0 1 0 0 0
165 103 10 0 0 0 0 0 0 0 0 0 0 0 0 0 0 0 0 0 0 0 0 0 0 0 0 0 0 0 0 0 0 0 0 0 0 0 0 3 8 7 2
164 64 2 0 0 0 0 0 0 0 0 0 0 0 0 0 0 0 0 0 0 0 0 0 0 0 0 0 0 0 0 0 0 0 0 0 0 0 0 0 1 8 14
194 145 15 0 0 0 0 0 0 2 0 0 0 0 0 0 0 0 0 0 0 0 0 0 0 0 0 0 0 0 0 0 0 0 0 0 0 0 0 0 0 0 6
7 151 108 45 0 0 0 1 1 0 0 0 1 6 0 0 0 0 0 0 0 0 0 0 0 0 0 0 0 0 0 0 0 0 0 0 0 0 0 0 0 0 0
0 1 44 45 2 1 1 1 1 1 0 0 1 9 11 4 0 0 0 0 0 0 0 0 0 0 0 0 0 0 0 0 0 0 0 3 0 0 0 0 0 0 0
0 0 10 13 1 1 1 2 2 1 0 0 10 25 3 2 0 0 0 0 0 0 0 0 0 0 0 0 0 0 0 0 0 0 0 0 0 0 0 0 0 0 0
0 0 0 2 0 0 2 1 1 0 0 0 6 0 0 2 0 0 0 0 0 0 0 0 0 0 0 0 0 0 0 0 0 0 0 0 0 0 2 0 0 0 0
0 0 0 0 1 1 0 0 0 0 0 1 1 4 0 0 0 0 0 0 0 0 0 0 0 0 0 0 0 0 0 0 0 0 0 0 0 0 0 0 0 0 0
0 0 0 3 1 0 0 0 0 0 0 0 0 0 0 0 0 0 0 0 0 0 0 0 0 0 0 0 0 0 0 0 0 0 0 0 0 0 0 0 0 0 0
0 0 0 1 0 0 1 2 0 0 0 0 0 0 0 0 0 0 0 0 0 0 0 0 0 0 0 0 0 0 0 0 0 0 0 0 0 0 0 0 0 0 0
0 0 0 1 0 1 1 0 0 0 0 0 0 0 0 0 0 0 0 0 0 0 0 0 0 0 0 0 0 0 0 0 0 0 0 0 0 0 0 0 0 0 0
0 0 0 0 0 2 1 0 0 0 0 0 0 0 0 0 0 0 0 0 0 0 0 0 0 0 0 0 0 0 0 0 0 0 0 0 0 0 0 0 0 0 0
0 11 0 0 0 2 0 0 0 0 0 0 0 0 0 0 0 0 0 0 0 0 0 0 0 0 0 0 0 0 0 0 0 0 0 0 0 0 0 0 0 1 1
17 27 2 0 2 1 0 0 0 0 0 0 0 0 0 0 0 0 0 0 0 0 0 0 0 0 0 0 0 0 0 0 0 0 0 0 0 0 0 0 1 2 1
42 42 3 1 2 0 0 0 0 0 0 0 0 0 0 0 0 0 0 0 0 0 0 0 0 0 0 0 0 0 0 0 0 0 0 0 0 1 1 1 1 1 1
43 43 36 7 1 0 0 0 0 0 0 0 0 0 0 0 0 0 0 0 0 0 0 0 0 0 0 0 0 0 0 0 0 0 0 2 2 2 2 3 1 0 1
37 51 52 1 0 0 0 0 0 0 0 0 0 0 0 0 0 0 0 0 0 0 0 0 0 0 0 0 0 0 0 0 0 0 3 3 2 2 2 3 2 1 2
0 16 1 1 0 0 0 0 0 0 0 0 0 0 0 0 0 0 0 0 0 0 0 0 0 0 0 0 0 0 0 0 0 0 1 2 2 2 2 0 0 0 0
CIN
0 0 0 0 0 0 0 0 0 0 0 0 0 0 0 0 0 0 0 0 0 0 0 0 0 0 0 0 0 0 0 0 -14 -3 0 0 0 0 0 0 0 0 0
0 0 0 0 0 0 0 0 0 0 0 0 0 0 0 0 0 0 0 0 0 0 0 0 0 0 0 0 0 0 0 0 -36 -26 -72 -65 0 0 0 0 0 0 0
0 0 0 0 0 0 0 0 0 0 0 0 0 0 0 0 0 0 0 0 0 0 0 0 0 0 0 0 0 0 -1 -69 -80 -53 -49 0 0 0 0 0 0 0 0
0 0 0 0 0 0 0 0 0 0 0 0 0 0 0 0 0 0 0 0 0 0 0 0 0 0 0 0 0 -6 0 -32 0 0 -36 0 0 0 0 0 0 0 0
-327 0 0 0 0 0 0 0 0 0 0 0 0 0 0 0 0 0 0 0 0 0 0 0 0 0 0 -70 -58 -3 0 0 0 0 0 0 0 0 0 0 -47 0 0
-301 -263 -142 0 0 0 0 0 0 0 0 0 0 0 0 0 0 0 0 0 0 0 0 0 0 0 0 0 0 0 0 0 0 0 0 0 0 0 0 0 0 0 -2
-261 -269 -343 0 0 0 0 0 0 0 0 0 0 0 0 0 0 0 0 0 0 0 0 0 0 0 0 0 0 0 0 0 0 0 0 0 0 0 0 -6 -15 0 0
-296 -298 -376 -34 0 0 0 0 0 0 0 0 0 0 0 0 0 -17 0 0 0 0 0 0 0 0 0 0 0 0 0 0 0 0 0 0 0 0 -4 -26 -7 0 0
-289 -318 -381 0 0 0 0 0 0 0 0 0 0 0 0 0 0 0 0 0 0 0 0 0 0 0 0 0 0 0 0 0 0 0 0 0 0 0 -6 -13 -9 -3 -5
-239 -296 -129 0 0 0 0 0 0 0 0 0 0 0 0 0 0 0 0 0 0 0 0 0 0 0 0 0 0 0 0 0 0 0 0 0 0 0 0 -2 -13 -4 -3
-209 -218 -176 0 0 0 0 0 0 0 0 -4 0 0 0 0 0 0 0 0 0 0 0 0 0 0 0 0 0 0 0 0 0 0 0 0 0 0 0 0 0 -11 -6
-132 -192 -197 -227 0 0 0 0 0 0 0 -5 -37 -18 -4 0 0 0 0 0 0 0 0 0 0 0 0 0 0 0 0 0 0 0 0 -3 0 0 0 0 0 0 0
0 -322 -197 -194 -161 0 0 0 0 0 0 -2 -3 -12 -23 -43 0 0 0 0 0 0 0 0 0 0 0 0 0 0 0 0 0 0 0 -14 0 -3 0 0 0 0 0
0 0 -190 -176 -9 0 0 0 0 0 0 0 -19 -17 -20 -49 0 0 0 0 0 0 0 0 0 0 0 0 0 0 0 0 0 0 0 0 -43 -8 0 -19 0 0 0
0 0 0 -108 0 0 0 0 0 0 0 0 -35 0 0 -21 0 0 0 0 0 0 0 0 0 0 0 0 0 0 0 0 0 0 0 0 0 0 -21 -12 0 0 0
0 0 0 0 -5 0 0 0 0 0 0 -48 -16 -33 -13 -21 0 0 0 0 0 0 0 0 0 0 0 0 0 0 0 0 0 0 0 0 0 0 0 0 0 0 0
0 0 0 -6 -9 0 0 0 0 0 0 0 0 0 0 0 0 0 0 0 0 0 0 0 0 0 0 0 0 0 0 0 0 0 0 0 0 0 0 0 0 0 0
0 0 0 -2 0 0 0 0 0 0 0 0 0 0 0 0 0 0 0 0 0 0 0 0 0 0 0 0 0 0 0 0 0 0 0 0 0 0 0 0 0 0 0
0 0 0 -1 0 0 0 0 0 0 0 0 0 0 0 0 0 0 0 0 0 0 0 0 0 0 0 0 0 0 0 0 0 0 0 0 0 0 0 0 0 0 0
0 0 0 0 0 0 0 0 0 0 0 0 0 0 0 0 0 0 0 0 0 0 0 0 0 0 0 0 0 0 0 0 0 0 0 0 0 0 0 0 0 0 0
0 -62 0 0 0 0 0 0 0 0 0 0 0 0 0 0 0 0 0 0 0 0 0 0 0 0 0 0 0 0 0 0 0 0 0 0 0 0 0 0 0 0 0
-73 -57 0 0 0 0 0 0 0 0 0 0 0 0 0 0 0 0 0 0 0 0 0 0 0 0 0 0 0 0 0 0 0 0 0 0 0 0 0 0 0 0 0
-57 -45 -6 0 0 0 0 0 0 0 0 0 0 0 0 0 0 0 0 0 0 0 0 0 0 0 0 0 0 0 0 0 0 0 0 0 0 0 0 0 0 0 0
-68 -52 -3 -3 0 0 0 0 0 0 0 0 0 0 0 0 0 0 0 0 0 0 0 0 0 0 0 0 0 0 0 0 0 0 0 0 0 0 0 0 0 0 0
-68 -19 0 -5 0 -2 -11 0 0 0 0 0 0 0 0 0 0 0 0 0 0 0 0 0 0 0 0 0 0 0 0 0 0 0 0 0 0 0 0 0 0 0 0
0 -4 0 0 0 0 0 0 0 0 0 0 0 0 0 0 0 0 0 0 0 0 0 0 0 0 0 0 0 0 0 0 0 0 0 0 0 0 0 0 0 0 0
Wind_Speed
5 3 2 4 6 5 5 5 5 3 1 2 3 5 7 11 10 10 12 13 13 14 15 16 16 17 19 21 22 21 20 20 23 25 25 25 27 29 32 32 30 28 29
5 3 1 2 5 5 5 6 6 5 4 3 1 2 7 10 11 9 10 12 12 13 14 15 16 18 21 23 24 24 22 20 22 26 28 29 30 32 34 35 30 27 30
6 4 1 1 5 6 6 7 7 6 7 4 3 1 5 8 10 11 11 12 11 12 14 15 16 19 22 24 25 24 24 25 24 25 29 29 32 33 35 30 28 29 30
6 4 2 2 4 6 7 7 6 7 7 5 4 3 6 8 10 10 10 11 11 12 13 15 18 20 23 25 25 26 26 26 25 26 31 34 34 32 28 30 31 30 33
7 4 3 2 3 3 6 8 6 7 9 7 6 5 6 7 10 10 10 10 11 12 15 17 19 21 24 24 24 26 25 26 28 32 33 32 33 32 31 29 31 30 29
8 3 2 1 2 6 6 7 8 8 9 8 11 10 6 7 10 8 8 9 12 15 17 18 21 23 23 23 25 25 25 27 30 30 30 32 30 26 25 26 27 27 28
9 7 4 2 1 4 6 7 9 9 8 12 9 9 8 8 9 8 8 10 12 15 16 19 22 20 20 21 24 25 25 26 26 26 26 24 23 23 24 23 22 23 23
15 11 8 6 4 3 4 7 8 8 7 7 9 8 12 12 9 9 8 10 13 14 17 19 19 19 18 20 24 25 25 27 25 23 21 20 18 17 16 15 12 12 8
22 16 12 8 8 6 5 6 8 8 11 9 11 15 14 12 10 10 12 13 14 15 16 18 17 17 17 19 22 24 26 24 22 21 18 16 17 15 15 13 12 11 6
25 21 16 12 10 7 7 5 10 10 8 9 9 11 13 14 12 13 12 14 14 16 18 16 16 15 15 17 20 23 22 21 22 22 20 17 14 13 14 12 11 13 14
29 24 20 16 12 11 11 10 9 10 9 10 16 14 15 15 13 14 12 13 15 17 18 17 16 14 14 15 17 19 16 19 20 19 17 17 16 15 14 13 11 8 5
31 29 24 19 15 15 12 11 8 5 6 7 9 15 14 16 15 14 12 13 15 17 18 17 17 16 13 15 15 14 15 18 19 19 16 13 12 11 10 9 8 7 3
34 33 30 25 19 16 12 10 9 4 5 4 4 7 13 14 13 14 10 13 14 17 17 17 15 15 16 16 14 12 15 17 18 19 16 13 13 10 7 8 6 7 5
35 34 33 30 25 17 11 11 11 4 4 2 8 3 9 12 13 11 12 14 16 17 17 15 15 18 16 16 15 14 13 15 18 18 15 15 15 13 7 12 9 9 6
35 34 33 31 26 17 12 12 6 3 2 2 3 6 3 9 9 8 11 14 15 15 16 16 16 18 18 17 14 12 11 13 17 19 17 16 14 14 11 11 9 5 3
36 34 32 30 27 16 10 11 11 5 5 4 4 4 9 10 9 10 12 13 14 14 16 18 18 18 19 16 14 12 11 12 17 18 18 16 15 14 9 8 8 5 4
35 33 31 28 24 15 10 7 4 7 7 4 4 6 7 8 10 11 12 14 14 15 16 17 18 20 19 17 16 14 14 17 19 18 17 17 17 15 11 9 10 10 7
34 32 32 28 24 15 10 8 2 2 4 7 8 8 9 10 11 12 14 14 15 15 16 17 18 19 18 18 18 18 20 21 21 19 17 18 18 18 15 13 12 11 11
34 33 31 29 21 14 8 5 1 4 4 6 7 9 10 12 14 15 14 15 15 14 17 18 18 17 16 17 19 20 20 20 20 19 19 20 21 22 21 20 20 20 20
33 30 29 26 20 12 7 1 5 6 6 5 6 8 10 12 14 16 15 15 16 17 18 18 16 15 15 17 19 20 20 21 21 21 20 20 21 22 23 23 21 20 18
28 26 22 21 19 9 3 6 8 10 6 5 7 9 10 12 14 15 16 17 18 19 18 16 15 15 16 17 19 20 21 21 20 19 19 19 18 15 12 11 12 14 11
26 24 21 19 13 4 7 10 5 2 3 4 7 9 10 13 14 16 17 18 19 18 17 16 15 16 17 18 20 21 20 19 20 18 14 13 13 13 10 9 8 7 5
26 23 22 19 10 4 5 7 10 7 4 4 7 9 11 13 15 17 18 19 19 17 17 16 17 17 17 18 19 19 19 17 15 15 15 13 10 9 8 5 5 7 8
27 24 22 14 6 7 8 6 4 5 5 7 10 11 12 14 16 17 18 19 18 18 19 19 19 18 17 17 17 16 13 15 13 11 8 5 5 6 6 7 7 8 8
32 27 19 6 6 9 10 4 3 4 8 12 11 13 14 16 17 18 19 18 18 19 19 20 20 18 16 15 12 9 10 9 7 4 6 6 8 7 8 8 9 9 10
37 24 10 8 12 8 6 4 2 5 11 11 12 14 15 17 18 18 17 18 19 19 20 20 19 18 15 13 6 5 6 5 7 6 7 10 10 10 10 10 13 14 11
Wind_Direction
23 58 113 165 178 200 226 217 232 206 197 129 61 60 44 28 27 14 6 5 7 10 9 6 4 5 4 1 0 357 353 350 344 344 343 342 339 338 335 336 334 330 328
19 26 108 174 188 215 217 226 215 227 210 202 141 77 22 24 20 18 5 359 0 3 2 2 0 1 358 357 355 352 350 348 343 338 339 338 336 334 333 330 331 330 327
13 12 21 268 207 218 217 202 219 243 213 224 214 325 5 17 14 8 7 358 357 358 0 358 358 355 353 354 352 350 348 346 344 340 338 338 336 332 331 333 332 329 328
14 8 327 261 231 229 228 223 227 251 239 242 265 304 342 355 4 4 6 0 357 355 357 355 353 352 352 351 350 348 348 349 349 345 338 335 336 336 338 334 331 331 326
360 348 313 277 259 249 227 222 236 259 270 266 274 299 332 355 3 3 1 2 356 353 350 350 353 354 352 354 355 357 357 354 349 343 340 340 340 339 336 337 332 333 332
348 325 327 159 247 286 271 247 251 270 267 266 280 289 310 347 360 359 2 355 351 350 350 354 354 355 1 4 5 3 1 356 350 348 346 343 345 348 351 350 346 343 340
339 330 321 312 255 283 292 268 260 248 259 271 267 284 304 325 349 344 346 350 348 350 352 352 353 0 4 6 6 6 4 1 359 357 355 357 358 358 354 357 359 352 349
330 330 328 323 305 279 295 276 260 249 262 243 261 284 306 321 336 342 349 351 349 348 350 353 357 1 6 6 5 4 3 1 4 6 6 3 2 3 6 9 17 22 27
331 330 332 329 323 307 281 269 271 271 284 277 285 291 308 322 337 345 346 350 349 349 354 356 360 2 6 6 6 4 2 6 10 11 10 10 10 13 16 16 20 29 41
332 330 336 333 331 317 298 287 283 272 259 275 286 301 311 319 338 342 349 351 352 352 355 357 1 2 2 5 6 5 8 11 10 8 10 15 16 17 14 18 18 12 15
330 334 334 332 324 320 315 309 301 284 290 292 297 306 316 320 332 337 351 356 355 355 357 357 360 358 359 5 6 8 15 13 10 13 19 23 28 31 31 33 33 32 40
330 330 334 336 333 327 320 320 312 274 273 276 296 301 314 321 330 338 352 357 358 359 359 2 1 3 10 6 6 13 17 15 19 21 26 29 34 35 39 42 43 40 56
324 325 326 331 333 330 325 318 323 287 258 302 308 319 316 323 335 344 5 2 6 3 5 6 11 13 9 10 13 21 21 21 22 21 26 29 29 30 33 34 42 36 253
322 322 324 327 330 336 334 329 330 351 293 359 320 352 338 328 337 4 8 8 8 8 12 17 16 12 14 16 20 22 26 22 18 18 21 20 23 24 29 27 29 22 267
319 320 324 324 330 339 346 341 345 37 63 88 348 356 51 352 4 21 10 7 10 16 18 17 14 11 10 10 15 17 20 18 13 11 12 12 12 15 19 18 8 346 299
314 317 323 322 324 336 349 353 349 32 20 46 24 10 350 359 27 24 17 21 22 23 18 13 11 12 9 12 11 10 13 11 7 6 5 7 10 12 360 347 354 345 282
307 313 312 320 327 332 340 337 352 18 10 35 28 17 16 39 35 30 30 23 23 24 16 15 14 11 12 13 13 15 12 6 3 4 9 11 7 5 3 357 0 2 357
301 306 302 314 324 329 323 326 283 54 68 357 2 20 60 49 41 34 25 25 19 20 19 15 12 13 17 19 20 17 10 4 6 11 9 7 6 5 2 0 1 2 3
292 299 301 303 327 330 338 328 151 102 77 68 52 38 41 37 33 24 23 16 19 25 19 15 16 22 27 24 17 12 11 10 8 6 4 3 1 359 358 359 359 359 356
289 297 300 302 321 326 336 195 129 112 114 91 70 62 44 35 22 19 22 30 31 24 18 18 25 31 29 21 16 15 12 8 4 2 1 360 358 358 357 358 3 6 12
290 297 304 303 315 329 351 131 123 124 110 79 67 61 50 30 25 29 32 30 26 21 22 27 32 31 26 23 19 14 8 6 5 2 0 -0 2 5 13 20 23 23 33
282 291 296 297 316 325 143 128 129 164 105 55 48 46 38 31 37 33 31 28 24 25 30 34 33 29 28 24 17 12 9 7 5 5 3 5 9 12 20 29 38 49 79
275 282 287 288 307 193 159 128 119 117 97 36 53 44 47 43 37 33 31 27 25 32 34 36 33 31 29 23 19 16 12 11 11 13 12 15 19 29 46 84 157 195 195
266 273 275 283 292 199 207 143 122 100 70 62 66 60 48 43 36 36 33 28 35 37 36 34 31 31 29 25 23 23 23 23 24 27 27 30 57 88 117 149 166 194 203
257 261 264 240 216 179 226 193 132 82 81 84 67 52 44 39 40 37 33 40 41 36 35 33 32 33 32 32 32 29 32 33 43 41 59 87 112 125 138 155 169 176 172
238 247 228 198 162 185 171 160 121 83 84 69 56 46 42 44 42 39 45 44 39 40 38 36 37 36 39 41 43 34 41 54 56 64 93 109 118 125 132 144 148 149 157